Hourly Weather Roundup
Issued by NWS Central Illinois

Home | Current Version | Previous Version | Text Only | Print | Product List | Glossary On
Versions: 1 2 3 4 5 6 7 8 9 10 11 12 13 14 15 16 17 18 19 20 21 22 23 24 25 26 27 28 29 30 31 32 33 34 35 36 37 38 39 40 41 42 43 44 45 46 47 48 49 50
374
NZUS43 KILX 052210
HWRILX

AREA WEATHER ROUNDUP
NATIONAL WEATHER SERVICE, LINCOLN IL
400 PM CST FRI FEB 05 2016


CITY           SKY/WX    TMP DP  RH WIND       PRES   REMARKS
BLOOMINGTON    MOSUNNY   32  23  69 W7        30.38R WCI  26
CHAMPAIGN      CLOUDY    32  23  69 NW5       30.38R WCI  27
DANVILLE       CLOUDY    30  24  77 W8        30.35S WCI  23
DECATUR        CLOUDY    34  22  61 W7        30.38S WCI  28
EFFINGHAM      SUNNY     37  28  69 W7        30.41S WCI  32
FLORA          MOSUNNY   40  24  51 N5        30.39S
GALESBURG      PTSUNNY   30  21  69 CALM      30.36S
JACKSONVILLE   MOSUNNY   36  21  54 CALM      30.37S
LACON          CLOUDY    31  20  65 W5        30.38S WCI  26
LAWRENCEVILLE  MOSUNNY   40  25  55 NW10      30.39R WCI  33
LITCHFIELD     MOSUNNY   36  19  49 CALM      30.38S
$$


CITY           SKY/WX    TMP DP  RH WIND       PRES   REMARKS
LINCOLN        MOSUNNY   33  24  69 CALM      30.39S
MACOMB         CLOUDY    32  22  67 CALM      30.38F
MATTOON        MOSUNNY   34  22  61 NW7       30.38R WCI  28
MT CARMEL AP   MOSUNNY   41  23  48 W9        30.38S
OLNEY-NOBLE AP SUNNY     37  21  52 W6        30.40R WCI  33
PARIS          CLOUDY    31  25  80 W6        30.40R WCI  25
PEORIA         CLOUDY    31  19  61 CALM      30.38F
PONTIAC        CLOUDY    31  25  80 W5        30.39S WCI  26
RANTOUL        CLOUDY    32  25  74 N6        30.38R WCI  27
ROBINSON       CLOUDY    37  22  55 NW9       30.40R WCI  30
SPRINGFIELD    SUNNY     36  22  56 CALM      30.38F
TAYLORVILLE    SUNNY     34  23  64 W6        30.39S WCI  29
$$

...REGIONAL REPORTS...


CITY           SKY/WX    TMP DP  RH WIND       PRES   REMARKS
CHICAGO O`HARE CLOUDY    32  18  56 W7        30.34R WCI  26
KANKAKEE       CLOUDY    30  23  75 W6        30.38S WCI  24
MOLINE         CLOUDY    32  18  56 CALM      30.36S
MOUNT STERLING MOSUNNY   31  20  63 CALM      30.36F
MOUNT VERNON   SUNNY     39  21  48 W5        30.40R
PITTSFIELD     CLOUDY    35  16  45 N3        30.36F
QUINCY         CLOUDY    33  19  56 CALM      30.35F
ROCKFORD       CLOUDY    30  19  63 W6        30.38R WCI  24
$$


CITY           SKY/WX    TMP DP  RH WIND       PRES   REMARKS
BURLINGTON     PTSUNNY   31  21  66 E5        30.33F WCI  26
CEDAR RAPIDS   CLOUDY    28  21  75 S6        30.32F WCI  22
DES MOINES     CLOUDY    32  17  54 SE9       30.29F WCI  24
KIRKSVILLE     CLOUDY    35  16  45 SE6       30.33F WCI  30
OTTUMWA        CLOUDY    31  19  61 SE7       30.32F WCI  24
ST LOUIS       CLOUDY    41  15  35 CALM      30.38S
$$


CITY           SKY/WX    TMP DP  RH WIND       PRES   REMARKS
TERRE HAUTE    SUNNY     35  24  64 NW9       30.39R WCI  28
EVANSVILLE     SUNNY     47  21  35 W7        30.38R
INDIANAPOLIS   PTSUNNY   38  24  57 NW10      30.33R WCI  31
LAFAYETTE      CLOUDY    30  22  72 W9        30.37R WCI  22
MADISON        CLOUDY    29  16  58 W3        30.32F
MILWAUKEE      PTSUNNY   31  12  45 W9        30.33R WCI  23
$$






USA.gov is the U.S. government's official web portal to all federal, state and local government web resources and services.